TAP015 LPPT-SBRF

Flight info

Callsign TAP015
Flight time N/A
Altitude 33000
Route BEVOP DCT BAROK UN873 SAMAR N873 IPERA UN873 FEMUR DCT ESGUM
Aircraft A21N/M-SADE1E2E3FGHIJ1J3J7M3P2RWXYZ/LB1D1

Departure

Time 2026-05-04 11:42
Airport Lisbon Humberto Delgado Airport (LPPT)

Arrival

Time N/A
Airport Recife/Guararapes - Gilberto Freyre International Airport (SBRF)
Time Latitude Longitude Altitude Speed Heading
2026-05-04 10:44 38.77372 -9.13142 347 ft 0 kts 78°
2026-05-04 11:31 38.77391 -9.13269 347 ft 1 kts 172°
2026-05-04 11:35 38.77388 -9.13268 348 ft 0 kts 172°
2026-05-04 11:36 38.77380 -9.13267 351 ft 2 kts 172°
2026-05-04 11:36 38.77358 -9.13266 349 ft 4 kts 192°
2026-05-04 11:36 38.77331 -9.13297 344 ft 6 kts 243°
2026-05-04 11:36 38.77318 -9.13363 351 ft 9 kts 259°
2026-05-04 11:37 38.77304 -9.13453 354 ft 12 kts 258°
2026-05-04 11:37 38.77286 -9.13564 356 ft 14 kts 258°
2026-05-04 11:37 38.77265 -9.13693 361 ft 16 kts 258°
2026-05-04 11:37 38.77246 -9.13812 361 ft 6 kts 249°
2026-05-04 11:38 38.77213 -9.13854 359 ft 7 kts 205°
2026-05-04 11:38 38.77165 -9.13880 360 ft 8 kts 202°
2026-05-04 11:38 38.77113 -9.13909 363 ft 8 kts 204°
2026-05-04 11:38 38.77058 -9.13939 356 ft 9 kts 201°
2026-05-04 11:39 38.76998 -9.13970 356 ft 10 kts 202°
2026-05-04 11:39 38.76933 -9.14005 358 ft 11 kts 202°
2026-05-04 11:40 38.76619 -9.14314 347 ft 10 kts 294°
2026-05-04 11:41 38.76643 -9.14375 346 ft 6 kts 322°
2026-05-04 11:41 38.76688 -9.14367 350 ft 11 kts 23°
2026-05-04 11:41 38.76763 -9.14325 353 ft 15 kts 24°
2026-05-04 11:41 38.77019 -9.14182 354 ft 71 kts 18°
2026-05-04 11:42 38.77666 -9.13843 370 ft 129 kts 21°
2026-05-04 11:42 38.78651 -9.13319 368 ft 176 kts 22°
2026-05-04 11:42 38.79786 -9.12669 864 ft 176 kts 21°
2026-05-04 11:42 38.80886 -9.11902 1387 ft 186 kts 28°
2026-05-04 11:43 38.82045 -9.11002 1835 ft 201 kts 26°
2026-05-04 11:43 38.83320 -9.10068 2259 ft 222 kts 26°
2026-05-04 11:43 38.84738 -9.09033 2613 ft 243 kts 26°
2026-05-04 11:43 38.86232 -9.07921 3258 ft 253 kts 30°
2026-05-04 11:44 38.87536 -9.06382 4015 ft 261 kts 52°
2026-05-04 11:44 38.88210 -9.04222 4728 ft 271 kts 80°
2026-05-04 11:44 38.88018 -9.01807 5441 ft 277 kts 108°
2026-05-04 11:44 38.87117 -8.99584 6147 ft 282 kts 122°
2026-05-04 11:45 38.85806 -8.97722 6929 ft 282 kts 144°
2026-05-04 11:45 38.84064 -8.96695 7651 ft 279 kts 171°
2026-05-04 11:45 38.82147 -8.96709 8356 ft 276 kts 197°
2026-05-04 11:45 38.80337 -8.97564 8922 ft 282 kts 207°
2026-05-04 11:46 38.78535 -8.98637 9548 ft 288 kts 207°
2026-05-04 11:46 38.76697 -8.99710 10239 ft 292 kts 207°
2026-05-04 11:46 38.74814 -9.00776 10578 ft 308 kts 206°
2026-05-04 11:46 38.72777 -9.01902 10849 ft 327 kts 206°
2026-05-04 11:47 38.70618 -9.03075 11100 ft 345 kts 206°
2026-05-04 11:47 38.68346 -9.04297 11332 ft 363 kts 206°
2026-05-04 11:47 38.65956 -9.05583 11576 ft 379 kts 205°
2026-05-04 11:47 38.63474 -9.06913 11822 ft 392 kts 205°
2026-05-04 11:48 38.60987 -9.08244 12430 ft 392 kts 206°
2026-05-04 11:48 38.58468 -9.09587 13056 ft 393 kts 206°
2026-05-04 11:48 38.55937 -9.10936 13624 ft 395 kts 206°
2026-05-04 11:48 38.53388 -9.12293 14121 ft 397 kts 206°
2026-05-04 11:49 38.50822 -9.13656 14581 ft 400 kts 206°
2026-05-04 11:49 38.48247 -9.15027 15026 ft 402 kts 206°
2026-05-04 11:49 38.45657 -9.16402 15459 ft 404 kts 206°
2026-05-04 11:49 38.43085 -9.17767 15881 ft 407 kts 206°
2026-05-04 11:50 38.40392 -9.18942 16282 ft 412 kts 200°
2026-05-04 11:50 38.37618 -9.19956 16688 ft 414 kts 200°
2026-05-04 11:50 38.34828 -9.20954 17087 ft 417 kts 200°
2026-05-04 11:50 38.32023 -9.21960 17481 ft 419 kts 200°
2026-05-04 11:51 38.29209 -9.22974 17882 ft 421 kts 200°
2026-05-04 11:51 38.26417 -9.23981 18265 ft 423 kts 200°
2026-05-04 11:51 38.23570 -9.25009 18618 ft 425 kts 200°
2026-05-04 11:51 38.20711 -9.26042 18947 ft 428 kts 200°
2026-05-04 11:52 38.17833 -9.27076 19280 ft 430 kts 200°
2026-05-04 11:52 38.14941 -9.28113 19611 ft 432 kts 200°
2026-05-04 11:52 38.12037 -9.29156 19938 ft 434 kts 200°
2026-05-04 11:52 38.09160 -9.30192 20256 ft 436 kts 200°
2026-05-04 11:53 38.06229 -9.31248 20594 ft 438 kts 200°
2026-05-04 11:53 38.03288 -9.32305 20932 ft 440 kts 200°
2026-05-04 11:53 38.00319 -9.33311 21267 ft 445 kts 197°
2026-05-04 11:53 37.97235 -9.33940 21604 ft 451 kts 191°
2026-05-04 11:55 37.74940 -9.36777 24011 ft 467 kts 191°
2026-05-04 11:55 37.71745 -9.37199 24323 ft 469 kts 191°
2026-05-04 11:56 37.68490 -9.37629 24621 ft 471 kts 191°
2026-05-04 11:56 37.65219 -9.38061 24912 ft 472 kts 191°
2026-05-04 11:56 37.61935 -9.38496 25189 ft 474 kts 192°
2026-05-04 11:56 37.58705 -9.39227 25470 ft 470 kts 199°
2026-05-04 11:57 37.55574 -9.40373 25730 ft 467 kts 203°
2026-05-04 11:57 37.52515 -9.41630 26019 ft 467 kts 203°
2026-05-04 11:57 37.49416 -9.42906 26273 ft 469 kts 203°
2026-05-04 11:57 37.46294 -9.44166 26500 ft 470 kts 203°
2026-05-04 11:58 37.43169 -9.45413 26702 ft 471 kts 202°
2026-05-04 11:58 37.40041 -9.46654 26862 ft 473 kts 202°
2026-05-04 11:58 37.36882 -9.47905 27020 ft 475 kts 202°
2026-05-04 11:58 37.33749 -9.49141 27189 ft 476 kts 202°
2026-05-04 11:59 37.30581 -9.50391 27391 ft 475 kts 202°
2026-05-04 11:59 37.27427 -9.51637 27631 ft 473 kts 202°
2026-05-04 11:59 37.24315 -9.52865 27855 ft 472 kts 202°
2026-05-04 11:59 37.21182 -9.54100 28080 ft 471 kts 202°
2026-05-04 12:00 37.18045 -9.55334 28323 ft 470 kts 202°
2026-05-04 12:00 37.14977 -9.56542 28811 ft 463 kts 203°
2026-05-04 12:00 37.11916 -9.57744 29404 ft 456 kts 203°
2026-05-04 12:00 37.08902 -9.58927 29904 ft 451 kts 203°
2026-05-04 12:01 37.05915 -9.60100 30325 ft 447 kts 203°
2026-05-04 12:01 37.02951 -9.61263 30677 ft 444 kts 203°
2026-05-04 12:02 36.85367 -9.68148 31157 ft 442 kts 204°
2026-05-04 12:03 36.79513 -9.70428 31136 ft 438 kts 204°
2026-05-04 12:03 36.73689 -9.72694 31154 ft 438 kts 204°
2026-05-04 12:04 36.67906 -9.74946 31162 ft 438 kts 204°
2026-05-04 12:04 36.62080 -9.77208 31161 ft 438 kts 204°
2026-05-04 12:05 36.56260 -9.79461 31143 ft 435 kts 204°
2026-05-04 12:05 36.50516 -9.81685 31158 ft 434 kts 204°
2026-05-04 12:06 36.44725 -9.83922 31158 ft 437 kts 204°
2026-05-04 12:06 36.38904 -9.86162 31163 ft 437 kts 204°
2026-05-04 12:07 36.33116 -9.88392 31123 ft 437 kts 204°
2026-05-04 12:07 36.27346 -9.90610 31154 ft 432 kts 205°
2026-05-04 12:08 36.21595 -9.92816 31163 ft 432 kts 205°
2026-05-04 12:08 36.15862 -9.95015 31166 ft 432 kts 205°
2026-05-04 12:09 36.10103 -9.97222 31161 ft 433 kts 205°
2026-05-04 12:09 36.04370 -9.99411 31152 ft 429 kts 205°
2026-05-04 12:10 35.98720 -10.01631 31157 ft 426 kts 208°
2026-05-04 12:10 35.93629 -10.05079 31163 ft 412 kts 223°
2026-05-04 12:11 35.89071 -10.09362 31165 ft 411 kts 224°
2026-05-04 12:11 35.84509 -10.13635 31165 ft 412 kts 223°
2026-05-04 12:12 35.79963 -10.17858 31143 ft 408 kts 223°
2026-05-04 12:12 35.75414 -10.22068 31163 ft 410 kts 223°
2026-05-04 12:14 35.57139 -10.38923 31168 ft 411 kts 223°
2026-05-04 12:15 35.52590 -10.43103 31171 ft 411 kts 223°
2026-05-04 12:15 35.48001 -10.47313 31171 ft 411 kts 223°
2026-05-04 12:16 35.43444 -10.51489 31171 ft 411 kts 223°
2026-05-04 12:16 35.38849 -10.55694 31171 ft 411 kts 223°
2026-05-04 12:17 35.34274 -10.59875 31169 ft 412 kts 223°
2026-05-04 12:17 35.29687 -10.64058 31180 ft 413 kts 223°
2026-05-04 12:18 35.25054 -10.68278 31150 ft 416 kts 223°
2026-05-04 12:18 35.20423 -10.72492 31165 ft 416 kts 223°
2026-05-04 12:19 35.15770 -10.76717 31167 ft 416 kts 223°
2026-05-04 12:19 35.11890 -10.80236 31167 ft 416 kts 223°
2026-05-04 12:20 35.07234 -10.84454 31168 ft 416 kts 223°
2026-05-04 12:20 35.02572 -10.88669 31168 ft 416 kts 223°
2026-05-04 12:21 34.97937 -10.92858 31154 ft 419 kts 223°
2026-05-04 12:21 34.93228 -10.97105 31167 ft 420 kts 223°
2026-05-04 12:22 34.88543 -11.01324 31164 ft 420 kts 223°
2026-05-04 12:22 34.83822 -11.05567 31164 ft 420 kts 223°
2026-05-04 12:23 34.79138 -11.09775 31166 ft 420 kts 223°
2026-05-04 12:23 34.74424 -11.14002 31170 ft 420 kts 223°
2026-05-04 12:24 34.69736 -11.18198 31159 ft 420 kts 223°
2026-05-04 12:24 34.65027 -11.22410 31163 ft 420 kts 223°
2026-05-04 12:25 34.60315 -11.26628 31168 ft 421 kts 223°
2026-05-04 12:25 34.55631 -11.30837 31173 ft 421 kts 223°
2026-05-04 12:26 34.50906 -11.35074 31169 ft 422 kts 223°
2026-05-04 12:26 34.46170 -11.39313 31169 ft 422 kts 223°
2026-05-04 12:27 34.41474 -11.43509 31163 ft 422 kts 223°
2026-05-04 12:27 34.36737 -11.47739 31168 ft 422 kts 223°
2026-05-04 12:28 34.32031 -11.51933 31166 ft 422 kts 223°
2026-05-04 12:28 34.27294 -11.56149 31166 ft 422 kts 223°
2026-05-04 12:29 34.22560 -11.60357 31165 ft 422 kts 223°
2026-05-04 12:29 34.17829 -11.64557 31127 ft 422 kts 222°
2026-05-04 12:30 34.13100 -11.68746 31156 ft 424 kts 222°
2026-05-04 12:30 34.08340 -11.72958 31165 ft 425 kts 222°
2026-05-04 12:31 34.03567 -11.77177 31167 ft 425 kts 222°
2026-05-04 12:31 33.98819 -11.81367 31168 ft 425 kts 222°
2026-05-04 12:32 33.91658 -11.87677 31168 ft 425 kts 222°
2026-05-04 12:33 33.86874 -11.91886 31154 ft 426 kts 221°
2026-05-04 12:33 33.82100 -11.96075 31163 ft 427 kts 221°
2026-05-04 12:34 33.77288 -12.00292 31162 ft 427 kts 221°
2026-05-04 12:34 33.72514 -12.04474 31158 ft 426 kts 221°
2026-05-04 12:35 33.67698 -12.08683 31165 ft 427 kts 221°
2026-05-04 12:35 33.62886 -12.12886 31164 ft 427 kts 221°
2026-05-04 12:36 33.58085 -12.17071 31150 ft 429 kts 220°
2026-05-04 12:36 33.53240 -12.21290 31158 ft 429 kts 220°
2026-05-04 12:37 33.48397 -12.25501 31153 ft 429 kts 220°
2026-05-04 12:37 33.43587 -12.29676 31159 ft 429 kts 220°
2026-05-04 12:38 33.38742 -12.33878 31157 ft 429 kts 220°
2026-05-04 12:38 33.33930 -12.38043 31155 ft 429 kts 220°
2026-05-04 12:39 33.29069 -12.42247 31155 ft 431 kts 220°
2026-05-04 12:39 33.24187 -12.46461 31154 ft 432 kts 220°
2026-05-04 12:40 33.19315 -12.50661 31154 ft 432 kts 220°
2026-05-04 12:40 33.14468 -12.54835 31157 ft 432 kts 219°
2026-05-04 12:41 33.09582 -12.59037 31152 ft 432 kts 219°
2026-05-04 12:41 33.04726 -12.63204 31156 ft 432 kts 219°
2026-05-04 12:42 32.99825 -12.67406 31150 ft 433 kts 219°
2026-05-04 12:42 32.94955 -12.71575 31153 ft 433 kts 219°
2026-05-04 12:43 32.90054 -12.75766 31154 ft 433 kts 219°
2026-05-04 12:43 32.85149 -12.79954 31158 ft 433 kts 219°
2026-05-04 12:44 32.80262 -12.84107 31154 ft 434 kts 219°
2026-05-04 12:44 32.75339 -12.88274 31153 ft 434 kts 219°
2026-05-04 12:45 32.70404 -12.92449 31153 ft 434 kts 219°
2026-05-04 12:45 32.65501 -12.96593 31154 ft 434 kts 219°
2026-05-04 12:46 32.60564 -13.00758 31151 ft 435 kts 219°
2026-05-04 12:46 32.55655 -13.04894 31148 ft 434 kts 219°
2026-05-04 12:47 32.50716 -13.09052 31149 ft 435 kts 219°
2026-05-04 12:47 32.45779 -13.13200 31134 ft 435 kts 218°
2026-05-04 12:48 32.40871 -13.17318 31147 ft 435 kts 218°
2026-05-04 12:48 32.35911 -13.21475 31148 ft 435 kts 218°
2026-05-04 12:49 32.30972 -13.25610 31145 ft 435 kts 218°
2026-05-04 12:49 32.26045 -13.29728 31147 ft 435 kts 218°
2026-05-04 12:50 32.21096 -13.33857 31144 ft 435 kts 218°
2026-05-04 12:50 32.16172 -13.37963 31133 ft 435 kts 218°
2026-05-04 12:51 32.11229 -13.42075 31137 ft 435 kts 218°
2026-05-04 12:51 32.06282 -13.46189 31140 ft 434 kts 218°
2026-05-04 12:52 32.01362 -13.50274 31145 ft 434 kts 218°
2026-05-04 12:52 31.96405 -13.54383 31142 ft 435 kts 218°
2026-05-04 12:53 31.91474 -13.58466 31144 ft 435 kts 218°
2026-05-04 12:53 31.86512 -13.62569 31131 ft 434 kts 218°
2026-05-04 12:54 31.81596 -13.66627 31137 ft 433 kts 218°
2026-05-04 12:54 31.76652 -13.70703 31141 ft 433 kts 218°
2026-05-04 12:55 31.71711 -13.74773 31144 ft 433 kts 218°
2026-05-04 12:55 31.66766 -13.78839 31142 ft 433 kts 218°
2026-05-04 12:56 31.61842 -13.82885 31138 ft 433 kts 218°
2026-05-04 12:56 31.56924 -13.86918 31133 ft 431 kts 218°
2026-05-04 12:57 31.52016 -13.90938 31141 ft 430 kts 218°
2026-05-04 12:57 31.47113 -13.94954 31143 ft 430 kts 218°
2026-05-04 12:58 31.42201 -13.98976 31140 ft 430 kts 218°
2026-05-04 12:58 31.37303 -14.02974 31138 ft 430 kts 218°
2026-05-04 12:59 31.32420 -14.06950 31140 ft 430 kts 218°
2026-05-04 12:59 31.27511 -14.10959 31127 ft 428 kts 219°
2026-05-04 13:00 31.22641 -14.14955 31129 ft 426 kts 219°
2026-05-04 13:00 31.17804 -14.18913 31141 ft 427 kts 219°
2026-05-04 13:01 31.12936 -14.22889 31141 ft 426 kts 218°
2026-05-04 13:01 31.08076 -14.26854 31140 ft 426 kts 218°
2026-05-04 13:02 31.03237 -14.30795 31143 ft 426 kts 218°
2026-05-04 13:02 30.98377 -14.34749 31125 ft 425 kts 219°
2026-05-04 13:03 30.93577 -14.38650 31138 ft 422 kts 219°
2026-05-04 13:03 30.88494 -14.42120 31131 ft 430 kts 206°
2026-05-04 13:04 30.82761 -14.44294 31133 ft 434 kts 202°
2026-05-04 13:04 30.77021 -14.46373 31135 ft 433 kts 203°
2026-05-04 13:05 30.71255 -14.48493 31132 ft 433 kts 203°
2026-05-04 13:05 30.65524 -14.50607 31126 ft 430 kts 204°
2026-05-04 13:06 30.59855 -14.52692 31128 ft 430 kts 204°
2026-05-04 13:06 30.54150 -14.54784 31131 ft 430 kts 204°
2026-05-04 13:07 30.48438 -14.56879 31128 ft 430 kts 204°
2026-05-04 13:07 30.42736 -14.58969 31126 ft 429 kts 204°
2026-05-04 13:08 30.37091 -14.61038 31119 ft 425 kts 204°
2026-05-04 13:08 30.31441 -14.63098 31125 ft 425 kts 204°
2026-05-04 13:09 30.25786 -14.65160 31124 ft 425 kts 204°
2026-05-04 13:09 30.20160 -14.67208 31124 ft 425 kts 204°
2026-05-04 13:10 30.15453 -14.68917 31126 ft 425 kts 204°
2026-05-04 13:10 30.08895 -14.71304 31119 ft 424 kts 204°
2026-05-04 13:11 30.04204 -14.73007 31121 ft 424 kts 204°
2026-05-04 13:11 29.98569 -14.75050 31121 ft 424 kts 204°
2026-05-04 13:12 29.92920 -14.77102 31121 ft 424 kts 204°
2026-05-04 13:12 29.87328 -14.79130 31121 ft 424 kts 204°
2026-05-04 13:13 29.81682 -14.81176 31124 ft 425 kts 204°
2026-05-04 13:13 29.76060 -14.83197 31124 ft 425 kts 204°
2026-05-04 13:14 29.70391 -14.85234 31122 ft 425 kts 204°
2026-05-04 13:14 29.64776 -14.87253 31119 ft 425 kts 204°
2026-05-04 13:15 29.59128 -14.89284 31121 ft 425 kts 204°
2026-05-04 13:15 29.53483 -14.91318 31102 ft 423 kts 204°
2026-05-04 13:16 29.47895 -14.93330 31119 ft 422 kts 204°
2026-05-04 13:16 29.42298 -14.95336 31118 ft 423 kts 204°
2026-05-04 13:17 29.36679 -14.97347 31117 ft 422 kts 204°
2026-05-04 13:17 29.31061 -14.99357 31115 ft 422 kts 204°
2026-05-04 13:18 29.25457 -15.01361 31091 ft 421 kts 204°
2026-05-04 13:18 29.19911 -15.03338 31108 ft 419 kts 204°
2026-05-04 13:19 29.14337 -15.05324 31112 ft 419 kts 204°
2026-05-04 13:19 29.08762 -15.07307 31116 ft 419 kts 204°
2026-05-04 13:20 29.03180 -15.09289 31109 ft 419 kts 204°
2026-05-04 13:20 28.97646 -15.11252 31114 ft 419 kts 204°